Simultaneous Nadir Overpasses (SNOs) Predictions

Prediction of SNOs between GOES-17 and AQUA Satellite Orbit:

Table of predicted SNOs for the next 14.0 days since TLE Epoch: 8/6/2022
Index Date Time (GOES-17) GOES-17 Lat,Lon AQUA Lat,Lon Distance(km) Time Diff (sec)
1 08/06/2022 22:41:26 -0.06,-137.31 0.23,-135.81 169.68 80
2 08/07/2022 11:05:14 0.06,-137.31 0.81,-140.94 412.52 80
3 08/09/2022 10:52:35 0.06,-137.30 0.18,-137.86 64.62 80
4 08/11/2022 10:37:17 0.05,-137.27 -0.47,-134.78 282.89 80
5 08/11/2022 22:58:33 -0.05,-137.26 -0.65,-139.94 305.31 80
6 08/13/2022 22:48:34 -0.04,-137.24 0.01,-136.86 42.36 80
7 08/15/2022 22:35:55 -0.04,-137.22 0.67,-133.79 389.75 80
8 08/16/2022 10:54:23 0.04,-137.22 0.43,-138.91 192.84 80
9 08/18/2022 10:44:24 0.04,-137.19 -0.24,-135.83 154.10 80
10 08/18/2022 23:03:01 -0.04,-137.17 -0.86,-140.99 434.34 80
